Regional Weather Roundup
Issued by NWS

Home | Current Version | Previous Version | Text Only | Print | Product List | Glossary On
Versions: 1 2 3 4 5 6 7 8 9 10 11 12 13 14 15 16 17 18 19 20 21 22 23 24 25 26 27 28 29 30 31 32 33 34 35 36 37 38 39 40 41 42 43 44 45 46 47 48 49 50
000
ASUS44 KFWD 031903
RWRTX
NORTH TEXAS HOURLY WEATHER ROUNDUP
NATIONAL WEATHER SERVICE FORT WORTH TX
200 PM CDT MON AUG 03 2015

NOTE: "FAIR" INDICATES FEW OR NO CLOUDS BELOW 12,000 FEET WITH NO
SIGNIFICANT WEATHER AND/OR OBSTRUCTIONS TO VISIBILITY.

TXZ118-119-032000-
DALLAS/FORT WORTH METROPLEX

CITY           SKY/WX    TMP DP  RH WIND       PRES   REMARKS
DFW AIRPORT    MOSUNNY   97  55  24 VRB6      29.91F HX  95
DALLAS LOVE    MOSUNNY   98  59  27 SW7       29.90F HX  98
FTW MEACHAM    SUNNY    100  57  23 VRB6      29.91F HX  99
DAL-EXECUTIVE  SUNNY     98  58  26 E6        29.91F HX  97
FTW-ALLIANCE   MOSUNNY   98  58  26 VRB5      29.91F HX  97
FTW-NAS-JRB    MOSUNNY   99  59  26 N7        29.92S HX  99
FTW-SPINKS     SUNNY     99  57  25 NE3       29.93F HX  97
ARLINGTON      SUNNY     98  57  25 MISG      29.91F HX  97
GRAND PRAIRIE  SUNNY     97  64  34 E5        29.93S HX  99
ADDISON        MOSUNNY   97  57  26 S7        29.92F HX  95
MESQUITE       SUNNY     97  57  26 SE10      29.92F HX  95
LANCASTER      SUNNY     97  55  24 S3        29.92F HX  94
$$

TXZ091>094-102>105-117-120-121-131>134-032000-
NORTH CENTRAL TEXAS

CITY           SKY/WX    TMP DP  RH WIND       PRES   REMARKS
SHRMAN/DENISON MOSUNNY   96  60  30 CALM      29.94F HX  96
GAINESVILLE    PTSUNNY   96  59  29 SE8       29.95S HX  95
BOWIE          MOSUNNY   92  61  36 S5        29.94F HX  92
DECATUR        MOSUNNY   95  57  28 SE6       29.94F HX  93
DENTON         MOSUNNY   96  57  27 NW3       29.91F HX  95
MCKINNEY       SUNNY     96  59  29 VRB7      29.92F HX  95
GREENVILLE     SUNNY     99  55  23 SE6       29.93S HX  97
ROCKWALL       MOSUNNY   94  64  36 CALM      29.92S HX  96
TERRELL        SUNNY     97  60  29 VRB3      29.92F HX  97
WAXAHACHIE     SUNNY     97  61  30 N5        29.93F HX  97
CLEBURNE       SUNNY     97  59  28 VRB3      29.94F HX  96
GRANBURY       MOSUNNY   95  59  30 CALM      29.93S HX  94
$$

TXZ083>090-098>101-113>116-127>130-139>142-154-155-032000-
WESTERN NORTH TEXAS

CITY           SKY/WX    TMP DP  RH WIND       PRES   REMARKS
WICHITA FALLS  CLOUDY    81  70  69 E7        29.94S
WF-KICKAPOO    DRIZZLE   83  70  66 CALM      29.95S
VERNON         PTSUNNY   84  65  52 SE5       29.96S
ABILENE        MOSUNNY   95  62  33 VRB3      29.96F HX  96
ABILENE-DYESS  PTSUNNY   95  64  35 VRB3      29.94F HX  97
BRECKENRIDGE   MOSUNNY   96  58  28 SE8       29.93F HX  95
GRAHAM         PTSUNNY   92  64  38 E3        29.93F HX  94
MINERAL WELLS  PTSUNNY   91  65  41 S5        29.92F HX  93
STEPHENVILLE   MOSUNNY   94  57  28 NE3       29.98S HX  92
COMANCHE       SUNNY     96  61  32 NE6       29.95F HX  96
COLEMAN        MOSUNNY   94  63  35 W3        29.96F HX  95
BRADY          SUNNY     97  63  32 E9        29.96S HX  98
$$

TXZ143>147-156>162-174-175-032000-
CENTRAL TEXAS

CITY           SKY/WX    TMP DP  RH WIND       PRES   REMARKS
WACO           SUNNY     98  61  29 S8        29.91F HX  98
WACO-TSTC      MOSUNNY   95  59  30 MISG      29.91F HX  94
HILLSBORO      SUNNY     96  58  27 SE6       29.93S HX  95
CORSICANA      MOSUNNY   96  61  31 VRB3      29.92F HX  96
MEXIA          MOSUNNY   96  62  32 NE14      29.91F HX  97
HEARNE         PTSUNNY   95  65  36 E6        29.92F HX  97
CAMERON        SUNNY     96  62  32 N3        29.91F HX  96
TEMPLE         SUNNY     97  61  30 CALM      29.93S HX  97
KILLEEN        NOT AVBL
KILLEEN-SKYLRK SUNNY     95  63  34 E12       29.92F HX  96
FORT HOOD      SUNNY     95  62  32 E15       29.92F HX  96
GATESVILLE     SUNNY     97  61  30 E5        29.94F HX  97
HAMILTON       MOSUNNY   96  57  26 SE5       29.95F HX  95
$$

TXZ095>097-106>112-122>126-135>138-148>153-164>167-032000-
EAST TEXAS

CITY           SKY/WX    TMP DP  RH WIND       PRES   REMARKS
PARIS          SUNNY     97  63  32 S6        29.93F HX  98
SULPHUR SPRNGS SUNNY     96  56  26 CALM      29.95F HX  95
MOUNT PLEASANT SUNNY     98  56  24 CALM      29.93F HX  96
GILMER         MOSUNNY   94  60  31 NE3       29.93F HX  93
MINEOLA        MOSUNNY   97  54  23 E5        29.94F HX  94
TYLER          CLOUDY    96  60  30 CALM      29.93F HX  96
LONGVIEW       MOSUNNY   98  61  29 SE8       29.92F HX  98
MARSHALL       SUNNY     99  60  27 S5        29.94F HX  98
ATHENS         MOSUNNY   95  63  34 SW3       29.91F HX  96
PALESTINE      PTSUNNY   95  60  31 N6        29.93F HX  94
JACKSONVILLE   SUNNY     96  53  22 E5        29.96F HX  94
HENDERSON      PTSUNNY   92  59  32 CALM      29.94S HX  92
CENTER         MOCLDY    96  62  31 NE7       29.92F HX  97
NACOGDOCHES    SUNNY     95  63  34 SE3       29.92F HX  96
LUFKIN         MOSUNNY   95  61  32 CALM      29.92F HX  95
$$

SUPPLEMENTAL OBSERVATIONS (CENTRAL)

CITY           SKY/WX    TMP DP  RH WIND       PRES   REMARKS
$$

SUPPLEMENTAL OBSERVATIONS (WEST)

CITY           SKY/WX    TMP DP  RH WIND       PRES   REMARKS
$$

SUPPLEMENTAL OBSERVATIONS (EAST)

CITY           SKY/WX    TMP DP  RH WIND       PRES   REMARKS
$$

SUPPLEMENTAL OBSERVATIONS ARE A COLLECTION OF AUTOMATED INSTRUMENTS
THAT ARE MAINTAINED BY A VARIETY OF FEDERAL AND STATE AGENCIES.
CERTAIN ELEMENTS...SUCH AS HUMIDITY VALUES AND SUSTAINED WIND
SPEEDS...MAY BE APPROXIMATED.



USA.gov is the U.S. government's official web portal to all federal, state and local government web resources and services.